RWZ939 UUBW-UWKD

Flight info

Callsign RWZ939
Flight time 1h 2m
Altitude 33000
Route KOGOM2W KOGOM L94 EKPIR M864 INKEB L94 UNORO T788 KOROM KOROM1R
Aircraft T204/M-SDE2E3FGHIJ3J4J7RWXY/LB1

Departure

Time 2026-04-17 12:51
Airport Zhukovsky International Airport (UUBW)

Arrival

Time 2026-04-17 13:54
Airport Kazan International Airport (UWKD)
Time Latitude Longitude Altitude Speed Heading
2026-04-17 12:31 55.55922 38.12297 382 ft 0 kts 134°
2026-04-17 12:43 55.55923 38.12297 382 ft 0 kts 134°
2026-04-17 12:44 55.55923 38.12295 382 ft 1 kts 134°
2026-04-17 12:44 55.55933 38.12277 382 ft 2 kts 133°
2026-04-17 12:44 55.55944 38.12258 382 ft 2 kts 134°
2026-04-17 12:44 55.55954 38.12239 382 ft 1 kts 134°
2026-04-17 12:45 55.55960 38.12226 382 ft 2 kts 125°
2026-04-17 12:45 55.55966 38.12202 382 ft 2 kts 101°
2026-04-17 12:45 55.55967 38.12176 382 ft 2 kts 80°
2026-04-17 12:45 55.55962 38.12151 383 ft 2 kts 59°
2026-04-17 12:46 55.55955 38.12135 382 ft 0 kts 43°
2026-04-17 12:46 55.55959 38.12142 383 ft 4 kts 44°
2026-04-17 12:46 55.55990 38.12191 382 ft 4 kts 41°
2026-04-17 12:46 55.56003 38.12211 382 ft 0 kts 40°
2026-04-17 12:48 55.56040 38.12270 382 ft 20 kts 41°
2026-04-17 12:49 55.56148 38.12434 383 ft 18 kts 44°
2026-04-17 12:49 55.56133 38.12687 383 ft 31 kts 112°
2026-04-17 12:49 55.56227 38.12979 383 ft 20 kts 48°
2026-04-17 12:49 55.56202 38.13151 383 ft 8 kts 130°
2026-04-17 12:50 55.56199 38.13156 383 ft 0 kts 131°
2026-04-17 12:50 55.56111 38.13335 383 ft 57 kts 130°
2026-04-17 12:51 55.55664 38.14223 389 ft 133 kts 131°
2026-04-17 12:51 55.54972 38.15502 950 ft 151 kts 131°
2026-04-17 12:51 55.54247 38.16960 1166 ft 166 kts 128°
2026-04-17 12:51 55.53461 38.18632 1620 ft 190 kts 126°
2026-04-17 12:52 55.52826 38.20743 2066 ft 200 kts 114°
2026-04-17 12:52 55.52243 38.23014 2418 ft 206 kts 115°
2026-04-17 12:52 55.51635 38.25279 2810 ft 205 kts 116°
2026-04-17 12:52 55.51178 38.27615 3233 ft 206 kts 95°
2026-04-17 12:53 55.51432 38.30095 3683 ft 211 kts 68°
2026-04-17 12:53 55.52166 38.32357 4176 ft 214 kts 62°
2026-04-17 12:53 55.52969 38.34594 4636 ft 216 kts 61°
2026-04-17 12:53 55.53839 38.37011 5238 ft 255 kts 61°
2026-04-17 12:54 55.54854 38.39846 5921 ft 295 kts 61°
2026-04-17 12:54 55.56027 38.43117 6563 ft 335 kts 60°
2026-04-17 12:54 55.57321 38.46724 7129 ft 368 kts 60°
2026-04-17 12:54 55.58723 38.50645 7641 ft 381 kts 60°
2026-04-17 12:55 55.60138 38.54597 8107 ft 386 kts 60°
2026-04-17 12:55 55.61577 38.58614 8564 ft 388 kts 60°
2026-04-17 12:55 55.63003 38.62605 9013 ft 390 kts 60°
2026-04-17 12:55 55.64455 38.66682 9470 ft 392 kts 61°
2026-04-17 12:56 55.65911 38.70781 9932 ft 394 kts 61°
2026-04-17 12:56 55.67352 38.74848 10382 ft 396 kts 61°
2026-04-17 12:56 55.68820 38.78998 10840 ft 398 kts 61°
2026-04-17 12:56 55.70280 38.83129 11291 ft 401 kts 61°
2026-04-17 12:57 55.71762 38.87332 11749 ft 402 kts 61°
2026-04-17 12:57 55.73237 38.91516 12199 ft 405 kts 61°
2026-04-17 12:57 55.74739 38.95792 12657 ft 407 kts 61°
2026-04-17 12:57 55.76221 38.99999 13102 ft 409 kts 61°
2026-04-17 12:58 55.77725 39.04292 13555 ft 411 kts 61°
2026-04-17 12:58 55.79234 39.08600 14009 ft 412 kts 61°
2026-04-17 12:58 55.80745 39.12936 14468 ft 415 kts 61°
2026-04-17 12:58 55.82268 39.17316 14930 ft 418 kts 61°
2026-04-17 12:59 55.83773 39.21667 15377 ft 421 kts 61°
2026-04-17 12:59 55.85304 39.26099 15833 ft 425 kts 61°
2026-04-17 12:59 55.86853 39.30574 16288 ft 426 kts 61°
2026-04-17 12:59 55.88413 39.35100 16751 ft 429 kts 61°
2026-04-17 13:00 55.89965 39.39604 17192 ft 417 kts 61°
2026-04-17 13:00 55.91397 39.43751 17500 ft 376 kts 61°
2026-04-17 13:00 55.92704 39.47530 17809 ft 341 kts 61°
2026-04-17 13:00 55.93878 39.50940 18139 ft 308 kts 62°
2026-04-17 13:01 55.94945 39.54060 18484 ft 290 kts 62°
2026-04-17 13:01 55.95990 39.57134 18908 ft 291 kts 62°
2026-04-17 13:01 55.97036 39.60230 19396 ft 297 kts 62°
2026-04-17 13:01 55.98105 39.63397 19875 ft 302 kts 62°
2026-04-17 13:02 55.99201 39.66634 20350 ft 305 kts 62°
2026-04-17 13:02 56.00231 39.69930 20821 ft 306 kts 65°
2026-04-17 13:02 56.01213 39.73293 21292 ft 309 kts 65°
2026-04-17 13:02 56.02210 39.76724 21768 ft 311 kts 68°
2026-04-17 13:03 56.02781 39.80356 22193 ft 308 kts 87°
2026-04-17 13:03 56.02898 39.84197 22725 ft 310 kts 89°
2026-04-17 13:03 56.02965 39.88035 23202 ft 312 kts 90°
2026-04-17 13:03 56.03007 39.91904 23602 ft 317 kts 90°
2026-04-17 13:04 56.03047 39.95906 23599 ft 321 kts 90°
2026-04-17 13:04 56.03085 39.99810 23866 ft 317 kts 90°
2026-04-17 13:04 56.03124 40.03770 24264 ft 318 kts 90°
2026-04-17 13:04 56.03164 40.07738 24636 ft 321 kts 90°
2026-04-17 13:05 56.03205 40.11723 25019 ft 323 kts 90°
2026-04-17 13:05 56.03245 40.15742 25393 ft 325 kts 89°
2026-04-17 13:05 56.03288 40.19805 25772 ft 327 kts 89°
2026-04-17 13:05 56.03331 40.23860 26388 ft 329 kts 89°
2026-04-17 13:06 56.03375 40.27964 27043 ft 334 kts 89°
2026-04-17 13:06 56.03421 40.32143 27684 ft 342 kts 89°
2026-04-17 13:06 56.03470 40.36398 28338 ft 351 kts 89°
2026-04-17 13:06 56.03524 40.40769 28973 ft 361 kts 89°
2026-04-17 13:07 56.03580 40.45332 29501 ft 373 kts 89°
2026-04-17 13:07 56.03639 40.49986 30024 ft 385 kts 89°
2026-04-17 13:07 56.03702 40.54872 30561 ft 396 kts 89°
2026-04-17 13:07 56.03766 40.59792 31092 ft 406 kts 89°
2026-04-17 13:08 56.03833 40.64877 31625 ft 416 kts 89°
2026-04-17 13:08 56.03903 40.70076 32144 ft 425 kts 89°
2026-04-17 13:08 56.03979 40.75373 32643 ft 435 kts 89°
2026-04-17 13:08 56.04024 40.80891 33009 ft 448 kts 90°
2026-04-17 13:09 56.04024 40.86508 32946 ft 469 kts 91°
2026-04-17 13:09 56.04007 40.92455 32839 ft 489 kts 91°
2026-04-17 13:09 56.03979 40.98604 32651 ft 503 kts 91°
2026-04-17 13:09 56.03948 41.04920 32387 ft 510 kts 91°
2026-04-17 13:10 56.03917 41.11243 32137 ft 513 kts 91°
2026-04-17 13:10 56.03887 41.17596 31915 ft 514 kts 91°
2026-04-17 13:10 56.03861 41.23950 31734 ft 514 kts 90°
2026-04-17 13:10 56.03838 41.30373 31573 ft 515 kts 90°
2026-04-17 13:11 56.03817 41.36684 31395 ft 515 kts 90°
2026-04-17 13:11 56.03786 41.49447 31437 ft 512 kts 90°
2026-04-17 13:11 56.03776 41.55782 31326 ft 514 kts 90°
2026-04-17 13:12 56.03769 41.62158 31383 ft 512 kts 90°
2026-04-17 13:12 56.03766 41.81232 31422 ft 512 kts 90°
2026-04-17 13:13 56.03782 41.93911 31372 ft 512 kts 89°
2026-04-17 13:13 56.03808 42.06649 31339 ft 513 kts 89°
2026-04-17 13:14 56.03850 42.19243 31388 ft 512 kts 89°
2026-04-17 13:14 56.03909 42.31976 31411 ft 511 kts 89°
2026-04-17 13:15 56.03979 42.44657 31387 ft 511 kts 88°
2026-04-17 13:15 56.04034 42.57325 31363 ft 512 kts 90°
2026-04-17 13:16 56.03819 42.69980 31381 ft 513 kts 91°
2026-04-17 13:16 56.03598 42.82672 31386 ft 513 kts 91°
2026-04-17 13:17 56.03395 42.95354 31386 ft 512 kts 90°
2026-04-17 13:17 56.03122 43.08060 31388 ft 513 kts 94°
2026-04-17 13:18 56.02457 43.20753 31405 ft 514 kts 94°
2026-04-17 13:18 56.01772 43.33417 31393 ft 514 kts 94°
2026-04-17 13:19 56.01071 43.46111 31381 ft 516 kts 94°
2026-04-17 13:19 56.00362 43.58781 31409 ft 516 kts 94°
2026-04-17 13:20 55.99638 43.71483 31415 ft 516 kts 95°
2026-04-17 13:20 55.98901 43.84092 31412 ft 516 kts 95°
2026-04-17 13:21 55.98138 43.96847 31403 ft 515 kts 95°
2026-04-17 13:21 55.97373 44.09524 31401 ft 517 kts 95°
2026-04-17 13:22 55.96598 44.22173 31418 ft 518 kts 95°
2026-04-17 13:22 55.95805 44.34935 31422 ft 518 kts 95°
2026-04-17 13:23 55.94997 44.47683 31411 ft 519 kts 95°
2026-04-17 13:23 55.94179 44.60409 31421 ft 519 kts 96°
2026-04-17 13:24 55.93350 44.73128 31435 ft 517 kts 96°
2026-04-17 13:24 55.92501 44.85848 31423 ft 518 kts 96°
2026-04-17 13:25 55.91639 44.98491 31427 ft 519 kts 96°
2026-04-17 13:25 55.90758 45.11261 31423 ft 520 kts 97°
2026-04-17 13:26 55.89865 45.24022 31418 ft 521 kts 97°
2026-04-17 13:26 55.88965 45.36732 31410 ft 521 kts 97°
2026-04-17 13:27 55.88049 45.49546 31412 ft 521 kts 97°
2026-04-17 13:27 55.87123 45.62213 31412 ft 520 kts 97°
2026-04-17 13:28 55.86176 45.74942 31407 ft 519 kts 98°
2026-04-17 13:28 55.85217 45.87625 31416 ft 519 kts 98°
2026-04-17 13:29 55.84245 46.00285 31415 ft 519 kts 98°
2026-04-17 13:29 55.83262 46.12989 31420 ft 520 kts 98°
2026-04-17 13:30 55.82271 46.25650 31427 ft 520 kts 98°
2026-04-17 13:30 55.81258 46.38309 31431 ft 519 kts 98°
2026-04-17 13:31 55.80228 46.50998 31426 ft 519 kts 98°
2026-04-17 13:31 55.79190 46.63628 31434 ft 519 kts 97°
2026-04-17 13:32 55.78142 46.76266 31435 ft 520 kts 98°
2026-04-17 13:32 55.77079 46.88947 31432 ft 521 kts 98°
2026-04-17 13:33 55.76002 47.01622 31441 ft 522 kts 98°
2026-04-17 13:33 55.74965 47.13676 31430 ft 522 kts 98°
2026-04-17 13:34 55.73858 47.26355 31445 ft 521 kts 98°
2026-04-17 13:34 55.72740 47.38992 31452 ft 521 kts 98°
2026-04-17 13:35 55.71608 47.51651 31441 ft 521 kts 98°
2026-04-17 13:35 55.70468 47.64293 31436 ft 522 kts 98°
2026-04-17 13:36 55.69318 47.76911 31443 ft 522 kts 99°
2026-04-17 13:36 55.68151 47.89547 31456 ft 522 kts 99°
2026-04-17 13:37 55.66990 48.01951 30887 ft 486 kts 98°
2026-04-17 13:37 55.66453 48.07628 29640 ft 454 kts 98°
2026-04-17 13:37 55.65960 48.12855 28503 ft 421 kts 98°
2026-04-17 13:38 55.65494 48.17774 27445 ft 393 kts 98°
2026-04-17 13:38 55.65058 48.22355 26369 ft 373 kts 98°
2026-04-17 13:38 55.64636 48.26774 25295 ft 357 kts 98°
2026-04-17 13:38 55.64236 48.30964 24234 ft 344 kts 98°
2026-04-17 13:39 55.63849 48.35017 23188 ft 333 kts 98°
2026-04-17 13:39 55.63474 48.38950 22163 ft 324 kts 98°
2026-04-17 13:39 55.63104 48.42812 21132 ft 316 kts 98°
2026-04-17 13:39 55.62735 48.46618 20495 ft 317 kts 99°
2026-04-17 13:40 55.62003 48.50275 19866 ft 318 kts 117°
2026-04-17 13:40 55.60909 48.53672 19297 ft 317 kts 118°
2026-04-17 13:40 55.59805 48.56991 18714 ft 317 kts 119°
2026-04-17 13:40 55.58680 48.60350 18111 ft 316 kts 119°
2026-04-17 13:41 55.57572 48.63659 17526 ft 315 kts 119°
2026-04-17 13:41 55.56469 48.66952 16939 ft 314 kts 120°
2026-04-17 13:41 55.55365 48.70241 16352 ft 313 kts 120°
2026-04-17 13:41 55.54263 48.73523 15755 ft 312 kts 120°
2026-04-17 13:42 55.53171 48.76775 15465 ft 301 kts 119°
2026-04-17 13:42 55.52116 48.79906 15102 ft 294 kts 119°
2026-04-17 13:42 55.51085 48.82972 14730 ft 289 kts 119°
2026-04-17 13:42 55.50075 48.85973 14343 ft 284 kts 119°
2026-04-17 13:43 55.49068 48.88958 13979 ft 279 kts 119°
2026-04-17 13:43 55.48100 48.91831 13631 ft 275 kts 119°
2026-04-17 13:43 55.47124 48.94723 13255 ft 272 kts 119°
2026-04-17 13:43 55.46164 48.97562 12883 ft 269 kts 119°
2026-04-17 13:44 55.45218 49.00358 12528 ft 267 kts 119°
2026-04-17 13:44 55.44271 49.03153 12161 ft 264 kts 119°
2026-04-17 13:44 55.43329 49.05930 11761 ft 262 kts 119°
2026-04-17 13:44 55.42406 49.08653 11402 ft 260 kts 119°
2026-04-17 13:45 55.41494 49.11334 10853 ft 257 kts 119°
2026-04-17 13:45 55.40510 49.14228 10496 ft 276 kts 119°
2026-04-17 13:45 55.39567 49.16986 9906 ft 260 kts 119°
2026-04-17 13:45 55.38657 49.19640 9332 ft 247 kts 119°
2026-04-17 13:46 55.37801 49.22139 9282 ft 231 kts 118°
2026-04-17 13:46 55.36994 49.24491 9247 ft 220 kts 118°
2026-04-17 13:46 55.36218 49.26758 9113 ft 216 kts 118°
2026-04-17 13:46 55.35495 49.29101 8744 ft 218 kts 105°
2026-04-17 13:47 55.35348 49.31726 8413 ft 216 kts 83°
2026-04-17 13:47 55.35726 49.34279 8150 ft 218 kts 66°
2026-04-17 13:47 55.36572 49.36490 7876 ft 223 kts 47°
2026-04-17 13:47 55.37751 49.38261 7563 ft 225 kts 40°
2026-04-17 13:48 55.39016 49.39933 7231 ft 227 kts 39°
2026-04-17 13:48 55.40284 49.41579 6924 ft 229 kts 39°
2026-04-17 13:48 55.41562 49.43235 6618 ft 229 kts 37°
2026-04-17 13:48 55.43018 49.44392 5838 ft 244 kts 15°
2026-04-17 13:49 55.44726 49.44830 4622 ft 260 kts
2026-04-17 13:49 55.46534 49.45196 3407 ft 269 kts
2026-04-17 13:49 55.48359 49.45564 2702 ft 253 kts
2026-04-17 13:49 55.49939 49.45887 2691 ft 199 kts 10°
2026-04-17 13:50 55.51168 49.46138 2461 ft 162 kts 11°
2026-04-17 13:50 55.52197 49.46353 2278 ft 142 kts
2026-04-17 13:50 55.53251 49.45916 2235 ft 167 kts 333°
2026-04-17 13:50 55.54101 49.44452 2253 ft 176 kts 311°
2026-04-17 13:51 55.54852 49.42660 2223 ft 181 kts 307°
2026-04-17 13:51 55.55530 49.40778 2054 ft 180 kts 297°
2026-04-17 13:51 55.56182 49.38980 1757 ft 171 kts 315°
2026-04-17 13:51 55.56977 49.37469 1526 ft 169 kts 312°
2026-04-17 13:52 55.57634 49.35683 1336 ft 174 kts 300°
2026-04-17 13:52 55.58236 49.33942 1106 ft 161 kts 305°
2026-04-17 13:52 55.58845 49.32455 811 ft 158 kts 307°
2026-04-17 13:52 55.59333 49.31209 642 ft 155 kts 306°
2026-04-17 13:53 55.59933 49.29643 424 ft 147 kts 306°
2026-04-17 13:53 55.60435 49.28408 395 ft 78 kts 303°
2026-04-17 13:53 55.60713 49.27680 384 ft 66 kts 304°
2026-04-17 13:53 55.60958 49.27044 371 ft 60 kts 303°
2026-04-17 13:54 55.61216 49.26944 369 ft 13 kts 77°
2026-04-17 13:54 55.61158 49.27164 373 ft 36 kts 124°
2026-04-17 13:55 55.60819 49.28043 394 ft 28 kts 126°
2026-04-17 13:55 55.60752 49.28212 396 ft 13 kts 124°
2026-04-17 13:55 55.60679 49.28412 400 ft 4 kts 126°
2026-04-17 13:56 55.60595 49.28645 404 ft 21 kts 96°
2026-04-17 13:56 55.60578 49.28978 405 ft 34 kts 96°
2026-04-17 13:56 55.60636 49.29325 410 ft 27 kts 15°
2026-04-17 13:57 55.60793 49.29389 408 ft 22 kts 36°
2026-04-17 13:57 55.60783 49.29557 409 ft 18 kts 122°
2026-04-17 13:57 55.60674 49.29859 413 ft 8 kts 109°
2026-04-17 13:58 55.60703 49.29947 413 ft 7 kts 31°